C/2017 T1 ( Heinze )

Japanese version
Home page
Updated on November 7, 2017

---------------------------------------------------------------------

* Profile

Discovery Date October 2, 2017
Magnitude 18.2 mag
Discoverer Aren Heinze (Asteroid Terrestrial-impact Last Alert System (ATLAS) search program)

* Pictures

* Orbital Elements

T 2018 Feb. 21.41064 TT                                 MPCW
q   0.5794553            (2000.0)            P               Q
                   Peri.   96.93843     +0.14394127     +0.19521677
                   Node   102.19125     -0.47677108     -0.84538709
e   1.0            Incl.   97.01083     +0.86716218     -0.49720326
From 87 observations 2017 Sept. 28-Oct. 16.

* Finding Charts

* Magnitudes Graph

        m1 = 11.5 + 5 log d + 10.0 log r

---------------------------------------------------------------------

The orbital elements are published on M.P.E.C. 2017-U15.
The charts are made with StellaNavigator Ver.10 (AstroArts).
The magnitudes graphs are made with Comet for Windows.

---------------------------------------------------------------------

Copyright(C) Seiichi Yoshida (comet@aerith.net). All rights reserved.